Wind_Speed
15 16 16 17 16 16 15 15 16 16 16 16 16 15 14 14 14 14 13 13 13 13 13 12 12 12 12 12 12 12 12 12 13 13 13 13 13 12 13 13 13 13 13
14 15 16 16 16 15 16 16 16 16 16 16 16 15 15 15 15 15 14 14 14 14 14 14 13 13 13 13 13 13 13 13 14 14 14 14 14 14 14 15 15 15 15
16 16 16 16 16 15 15 16 16 15 15 16 15 15 15 15 15 15 15 15 15 15 15 15 15 14 14 14 14 15 15 15 15 15 15 15 15 15 16 16 16 17 18
16 17 17 16 16 15 16 16 16 15 15 15 15 16 16 16 15 15 16 16 16 16 16 15 16 15 15 15 15 16 16 16 16 16 16 16 17 17 18 18 19 19 20
17 17 18 17 17 17 17 17 17 15 15 16 16 17 17 17 16 16 17 16 16 16 16 16 16 17 16 16 16 16 17 17 17 17 17 18 18 19 19 20 21 21 22
18 18 18 18 19 18 18 18 18 17 16 16 16 16 17 17 17 17 16 16 16 16 17 17 16 17 17 18 18 18 18 19 19 19 19 20 20 21 22 22 23 23 24
19 18 18 19 19 19 20 20 19 18 18 17 17 17 17 17 17 17 16 16 16 16 16 17 17 17 17 18 19 19 20 20 21 21 22 22 23 23 23 24 25 26 26
18 18 18 20 20 21 21 21 20 20 19 18 18 18 18 18 17 16 17 17 17 17 17 18 18 19 19 19 20 22 22 22 23 23 23 24 24 25 26 26 27 28 29
19 18 19 19 20 21 21 21 21 20 20 20 19 19 19 18 17 18 18 18 19 18 18 19 20 20 21 21 21 22 23 24 23 24 25 25 25 26 28 29 30 30 31
19 20 20 20 20 20 20 20 20 20 21 21 21 21 19 18 19 19 19 20 20 20 20 20 21 22 23 23 24 25 25 25 26 26 27 28 28 29 30 31 32 33 33
18 18 19 19 20 20 20 20 20 20 20 20 20 20 20 20 20 20 20 21 21 22 23 24 24 25 26 26 26 26 27 27 28 30 30 31 31 31 31 33 34 34 35
17 17 18 18 19 19 19 20 20 19 19 19 20 21 21 21 21 21 22 22 23 24 25 25 26 26 26 27 27 28 29 30 30 31 32 32 33 33 34 34 35 37 38
17 17 17 17 19 19 20 20 20 20 21 22 22 22 22 23 23 23 24 25 25 25 26 27 27 27 28 28 28 30 30 32 33 34 34 35 36 36 36 37 38 39 40
18 18 18 18 19 19 20 21 21 22 23 24 24 24 24 24 25 25 26 26 27 27 28 28 28 29 30 30 31 33 34 34 35 36 36 37 38 38 39 40 41 42 42
19 18 19 19 20 20 21 22 22 23 23 24 25 25 25 25 26 27 28 29 29 29 30 31 32 32 33 34 35 35 36 36 36 37 38 40 40 41 42 42 43 44 44
19 19 19 20 20 21 21 22 23 23 24 24 26 26 27 28 28 29 29 30 32 33 34 34 35 35 35 36 36 37 37 38 39 40 41 42 43 43 44 44 45 45 45
21 20 20 20 21 21 22 23 23 24 25 25 26 27 28 29 30 31 32 33 34 35 36 37 38 38 38 38 39 39 40 40 41 42 42 43 43 44 45 46 46 46 47
21 21 21 22 22 22 23 24 25 25 26 26 27 29 30 31 32 33 34 35 36 38 39 40 40 40 40 40 41 41 41 42 42 43 43 44 45 46 46 47 47 47 48
21 22 22 22 23 24 25 25 26 26 27 28 29 30 31 31 33 34 35 36 37 38 39 40 40 40 40 41 41 42 42 43 44 44 44 45 46 46 47 47 47 48 47
22 22 23 24 24 25 25 26 27 28 28 29 30 31 32 33 35 35 37 38 38 38 38 38 39 39 40 40 41 41 42 43 45 45 46 46 47 47 47 47 47 47 47
23 23 23 24 25 25 26 27 28 29 30 32 32 33 34 36 37 37 37 38 38 38 38 39 39 40 40 41 42 43 44 44 45 46 46 47 47 47 47 47 47 47 48
24 24 24 25 26 26 27 28 29 30 31 32 33 34 35 36 37 37 37 38 39 40 40 41 41 42 42 43 44 45 45 45 45 46 47 48 48 48 48 48 49 49 49
25 25 25 26 26 27 28 29 30 31 32 33 34 35 35 35 36 37 38 39 39 40 41 41 42 42 42 43 43 44 44 45 46 47 48 48 48 48 48 49 49 49 49
24 25 25 26 26 27 28 29 30 31 32 33 33 33 34 35 37 38 39 40 40 41 41 42 42 42 43 43 44 45 45 46 47 48 48 48 48 48 48 48 48 48 48
24 25 25 26 27 27 28 29 30 31 32 32 33 34 35 36 37 38 39 39 40 41 42 43 43 44 44 45 45 46 47 48 48 48 48 48 47 47 47 47 46 46 46
23 25 26 27 27 28 28 29 30 31 31 32 33 34 35 36 37 38 38 39 40 42 43 43 44 45 46 47 47 48 48 48 48 47 47 46 45 45 45 44 44 43 43
Wind_Direction
242 242 235 235 238 240 240 242 243 242 240 236 234 236 238 241 243 243 243 244 245 245 244 246 249 253 257 262 265 270 275 279 282 282 283 286 290 292 294 295 295 296 294
243 239 234 235 238 243 243 243 244 242 240 238 236 238 240 243 243 243 243 246 247 248 247 248 251 255 259 263 267 272 275 278 281 281 282 282 285 288 293 295 296 295 294
243 240 238 237 240 245 244 242 241 240 240 239 238 238 240 243 244 243 244 247 249 251 250 251 253 257 261 264 269 274 276 277 279 279 279 282 284 286 290 293 295 296 295
243 243 239 238 240 242 241 238 238 239 239 239 239 240 242 243 243 244 247 249 249 251 253 253 253 259 263 266 270 272 274 276 280 279 280 282 283 286 288 290 292 293 293
242 241 238 238 240 242 241 239 239 240 244 245 244 241 242 241 243 247 249 251 252 253 253 254 256 259 262 265 269 273 275 275 277 277 278 280 282 284 286 288 289 290 291
242 240 237 239 241 242 240 240 241 242 246 247 246 244 243 243 247 249 247 250 252 254 253 255 260 262 263 265 268 271 274 276 276 276 277 279 282 284 285 287 289 290 290
239 239 239 241 241 240 240 240 243 245 246 245 246 246 248 249 251 249 247 249 253 256 256 259 261 264 266 268 270 272 274 276 277 278 278 279 282 283 284 285 287 289 290
238 238 240 242 242 241 240 240 244 244 245 244 246 249 250 251 249 247 249 251 255 257 259 263 264 266 268 271 272 273 275 277 278 279 280 281 282 282 283 285 286 287 289
240 242 244 243 241 239 239 240 242 243 243 244 246 246 249 250 250 250 252 255 258 260 263 267 269 270 271 271 274 275 276 275 276 278 279 281 283 284 284 285 286 287 289
245 245 245 242 239 239 240 240 241 243 245 245 246 248 249 249 251 253 257 258 260 263 266 269 271 272 273 275 276 277 278 278 277 280 281 282 285 286 286 286 287 288 289
247 246 244 243 242 241 240 239 240 244 247 247 247 249 250 252 253 255 258 260 263 266 268 271 273 274 276 276 276 276 277 279 280 281 282 283 285 285 286 286 287 289 290
245 245 244 244 244 243 241 240 242 244 246 248 250 251 253 254 256 258 262 264 266 269 271 272 275 276 277 277 276 277 277 278 280 281 283 283 285 287 288 288 288 289 290
242 242 243 245 245 244 242 242 243 246 249 252 254 255 255 257 258 260 264 266 267 269 271 273 274 276 276 276 278 279 280 281 282 283 284 285 287 288 289 289 289 289 290
245 246 247 247 246 246 246 247 249 251 253 255 256 258 260 261 262 264 266 267 270 273 275 274 276 277 277 279 280 281 281 282 282 283 285 286 287 288 288 289 289 290 290
248 249 249 248 247 248 250 252 253 255 257 258 259 260 261 263 266 268 268 269 272 274 276 278 278 279 279 279 280 281 282 283 284 284 285 286 287 288 288 289 289 289 290
249 250 249 248 249 251 253 254 256 257 258 260 261 261 263 267 269 270 271 272 273 275 276 278 279 279 280 280 281 281 282 283 285 286 286 286 286 287 288 288 289 290 290
248 250 250 249 251 255 256 257 258 259 261 263 265 266 267 269 271 272 273 273 274 275 276 279 280 280 279 280 281 281 283 284 284 285 286 287 287 287 287 289 290 291 291
248 249 250 251 253 256 259 260 261 263 264 265 266 268 270 271 273 275 275 275 276 277 278 279 279 279 280 280 281 282 283 284 284 285 286 286 287 287 288 289 290 291 291
249 249 250 253 256 259 262 263 264 266 268 268 268 269 271 273 275 276 278 278 279 279 279 278 279 279 280 281 282 282 283 284 284 285 286 286 287 287 287 288 289 290 291
250 251 254 257 259 260 262 265 267 269 270 271 272 273 275 277 278 279 280 279 281 282 281 280 280 281 281 281 282 283 284 285 285 285 286 287 287 288 288 289 290 290 291
252 254 256 258 260 263 266 268 270 271 273 274 276 277 278 278 279 279 280 281 282 282 282 281 282 282 282 282 282 283 285 286 287 287 287 288 288 288 288 289 289 290 291
255 256 259 262 265 268 270 272 274 275 276 277 278 279 279 279 280 280 281 282 282 282 283 284 284 284 283 283 283 284 285 286 287 287 287 287 288 288 288 289 289 290 290
256 259 262 265 268 271 274 275 275 277 278 279 280 282 283 282 282 282 282 282 283 283 283 283 284 283 283 283 284 285 285 286 286 286 287 288 288 288 288 289 289 289 289
259 262 266 269 271 274 277 277 278 279 280 282 283 283 283 283 283 283 283 284 285 285 285 285 285 284 283 283 284 285 286 287 287 288 289 290 289 289 289 289 289 289 290
263 266 269 270 273 275 277 278 279 281 282 282 283 284 284 284 285 286 286 287 287 288 287 286 285 284 284 284 285 286 286 288 289 290 290 290 290 290 290 289 289 289 289
266 268 269 271 273 276 278 280 282 284 284 284 286 287 288 289 290 291 291 291 290 289 288 287 286 286 286 286 287 287 288 288 289 289 289 289 290 291 291 291 290 290 290
Height
5843 5844 5846 5848 5850 5851 5853 5854 5855 5856 5858 5859 5861 5862 5863 5865 5866 5867 5868 5869 5870 5871 5872 5873 5874 5874 5875 5875 5875 5875 5874 5874 5874 5873 5873 5872 5871 5870 5869 5868 5867 5866 5865
5839 5841 5842 5844 5846 5848 5849 5850 5852 5853 5855 5856 5858 5859 5860 5862 5863 5864 5865 5866 5867 5868 5869 5870 5870 5871 5871 5871 5871 5871 5871 5871 5870 5870 5869 5869 5868 5867 5866 5865 5864 5863 5862
5836 5838 5839 5841 5843 5844 5846 5847 5848 5850 5851 5853 5854 5856 5857 5858 5859 5861 5862 5863 5864 5865 5866 5866 5867 5867 5868 5868 5868 5868 5867 5867 5867 5866 5865 5865 5864 5863 5862 5861 5860 5859 5857
5832 5834 5836 5838 5839 5841 5842 5844 5845 5847 5848 5849 5851 5852 5854 5855 5856 5857 5858 5859 5860 5861 5862 5862 5863 5863 5864 5864 5864 5864 5863 5863 5862 5862 5861 5861 5860 5859 5858 5857 5856 5855 5853
5828 5830 5832 5834 5835 5837 5839 5840 5842 5843 5845 5846 5847 5849 5850 5851 5852 5853 5854 5855 5856 5857 5858 5858 5859 5859 5859 5859 5860 5859 5859 5858 5858 5857 5857 5856 5856 5854 5853 5852 5851 5849 5848
5824 5826 5828 5830 5831 5833 5835 5837 5839 5840 5841 5842 5844 5845 5846 5847 5848 5849 5850 5851 5852 5852 5853 5854 5854 5854 5854 5855 5855 5855 5854 5854 5853 5852 5852 5851 5850 5849 5848 5846 5845 5844 5842
5820 5822 5824 5825 5827 5829 5831 5833 5835 5836 5837 5839 5840 5841 5842 5844 5845 5845 5846 5847 5848 5848 5849 5849 5849 5850 5850 5850 5850 5849 5849 5848 5848 5847 5846 5845 5844 5843 5842 5840 5839 5837 5835
5816 5818 5819 5821 5823 5825 5826 5829 5830 5832 5833 5835 5836 5837 5838 5839 5840 5841 5842 5843 5843 5844 5844 5845 5845 5845 5845 5845 5844 5844 5843 5843 5842 5841 5840 5839 5838 5837 5835 5834 5832 5830 5828
5812 5814 5815 5817 5818 5820 5822 5824 5826 5827 5829 5830 5832 5833 5834 5835 5836 5837 5837 5838 5839 5839 5839 5839 5839 5839 5839 5839 5838 5838 5837 5836 5835 5834 5833 5832 5831 5829 5828 5826 5824 5822 5820
5808 5809 5811 5813 5814 5816 5818 5819 5821 5823 5824 5825 5826 5828 5829 5830 5831 5832 5833 5833 5834 5834 5834 5834 5834 5833 5833 5832 5832 5831 5830 5829 5828 5827 5826 5825 5823 5822 5820 5818 5816 5814 5811
5803 5805 5807 5809 5810 5812 5813 5815 5816 5818 5819 5820 5821 5823 5824 5825 5826 5827 5827 5828 5828 5828 5828 5827 5827 5827 5826 5825 5825 5824 5823 5822 5821 5819 5818 5816 5815 5813 5811 5809 5807 5804 5802
5799 5801 5802 5804 5806 5807 5809 5810 5812 5813 5814 5815 5816 5817 5818 5820 5820 5821 5821 5822 5822 5821 5821 5821 5820 5820 5818 5818 5817 5816 5815 5814 5813 5811 5809 5808 5806 5804 5802 5800 5797 5795 5792
5796 5797 5798 5800 5802 5803 5804 5806 5807 5808 5809 5810 5811 5812 5813 5813 5814 5814 5815 5815 5814 5814 5814 5814 5813 5812 5811 5810 5809 5808 5807 5805 5804 5802 5800 5799 5797 5794 5792 5789 5787 5784 5781
5791 5793 5794 5795 5797 5798 5799 5800 5802 5803 5804 5805 5805 5806 5807 5807 5807 5808 5807 5807 5807 5807 5806 5806 5805 5804 5803 5802 5800 5799 5797 5796 5794 5792 5790 5788 5786 5783 5781 5778 5775 5772 5769
5786 5787 5789 5790 5792 5793 5794 5795 5796 5797 5798 5799 5799 5799 5800 5800 5801 5800 5800 5800 5799 5799 5798 5797 5796 5795 5794 5793 5791 5789 5788 5786 5784 5782 5779 5777 5774 5772 5769 5766 5763 5759 5756
5781 5783 5784 5785 5786 5788 5789 5790 5790 5792 5792 5792 5792 5793 5793 5793 5793 5792 5792 5791 5791 5790 5789 5788 5787 5785 5784 5782 5781 5779 5777 5775 5773 5770 5768 5765 5762 5759 5756 5753 5750 5746 5743
5776 5777 5779 5780 5781 5782 5783 5784 5784 5785 5785 5786 5786 5786 5785 5785 5785 5784 5783 5782 5781 5780 5779 5778 5776 5775 5773 5771 5769 5767 5765 5763 5761 5758 5755 5752 5749 5746 5743 5740 5736 5733 5729
5770 5772 5773 5774 5775 5776 5777 5777 5778 5778 5778 5778 5778 5778 5777 5777 5776 5775 5774 5773 5771 5770 5769 5767 5765 5764 5762 5760 5758 5755 5753 5751 5748 5745 5743 5740 5736 5733 5730 5726 5723 5719 5716
5765 5766 5767 5768 5769 5770 5771 5771 5771 5771 5771 5770 5770 5769 5769 5768 5767 5765 5764 5762 5761 5759 5757 5755 5753 5752 5750 5748 5746 5743 5741 5738 5735 5732 5729 5726 5723 5719 5716 5713 5709 5705 5701
5758 5760 5761 5762 5763 5763 5764 5764 5764 5763 5763 5762 5761 5760 5759 5758 5756 5755 5753 5751 5749 5747 5745 5743 5742 5740 5738 5735 5733 5730 5727 5725 5722 5719 5716 5713 5709 5706 5702 5699 5695 5691 5687
5752 5753 5755 5755 5756 5756 5756 5756 5755 5755 5754 5753 5752 5751 5749 5748 5746 5744 5742 5740 5738 5736 5733 5731 5729 5727 5725 5723 5720 5717 5714 5711 5708 5705 5702 5698 5695 5691 5688 5684 5680 5677 5673
5746 5747 5748 5748 5748 5748 5748 5747 5747 5746 5744 5743 5742 5740 5738 5737 5735 5733 5731 5729 5726 5724 5722 5719 5717 5714 5712 5710 5707 5704 5701 5698 5694 5691 5687 5684 5680 5677 5673 5669 5666 5662 5658
5739 5740 5741 5741 5741 5740 5740 5738 5737 5736 5735 5733 5731 5729 5727 5725 5723 5721 5719 5717 5715 5712 5709 5706 5703 5701 5698 5696 5693 5690 5687 5684 5680 5676 5673 5669 5665 5662 5658 5654 5650 5647 5643
5732 5733 5733 5733 5733 5732 5731 5730 5728 5727 5725 5723 5721 5719 5717 5714 5712 5710 5707 5704 5702 5699 5696 5693 5690 5687 5684 5682 5679 5675 5672 5669 5665 5661 5658 5654 5650 5647 5643 5639 5635 5632 5628
5725 5726 5726 5725 5725 5724 5722 5721 5719 5717 5715 5713 5711 5708 5706 5703 5700 5697 5694 5691 5688 5685 5682 5679 5676 5673 5670 5667 5664 5661 5657 5654 5650 5646 5643 5639 5635 5632 5628 5624 5620 5617 5613
5718 5718 5718 5717 5716 5715 5714 5712 5710 5708 5706 5703 5701 5698 5695 5692 5689 5685 5682 5678 5675 5671 5668 5665 5661 5658 5655 5652 5649 5646 5642 5639 5635 5631 5627 5624 5620 5617 5613 5609 5606 5603 5599